Regional Weather Roundup
Issued by NWS

Home | Current Version | Previous Version | Text Only | Print | Product List | Glossary Off
Versions: 1 2 3 4 5 6 7 8 9 10 11 12 13 14 15 16 17 18 19 20 21 22 23 24 25 26 27 28 29 30 31 32 33 34 35 36 37 38 39 40 41 42 43 44 45 46 47 48 49 50

000
ASUS43 KBIS 030801
RWRND

NORTH DAKOTA REGIONAL WEATHER ROUNDUP
NATIONAL WEATHER SERVICE BISMARCK ND
300 AM CDT SUN MAY 03 2015

NOTE: "FAIR" INDICATES FEW OR NO CLOUDS BELOW 12,000 FEET WITH NO
SIGNIFICANT WEATHER AND/OR OBSTRUCTIONS TO VISIBILITY.


NDZ001>003-009>011-017-030900-
NORTHWEST NORTH DAKOTA

CITY           SKY/WX    TMP DP  RH WIND       PRES   REMARKS
WILLISTON      CLOUDY    48  35  60 CALM      29.89R
MINOT          MOCLDY    49  36  61 W12       29.81R
MINOT AFB      MOCLDY    46  38  74 W8        29.80R
$$

NDZ018>021-031>035-040>046-030900-
SOUTHWEST NORTH DAKOTA

CITY           SKY/WX    TMP DP  RH WIND       PRES   REMARKS
BISMARCK       MOCLDY    57  37  47 N15G24    29.79R
DICKINSON      CLOUDY    52  36  54 N7        29.85R
GARRISON         N/A     51  39  63 N13       29.82R
HETTINGER ARPT MOCLDY    54  34  46 NE16      29.84R
$$

NDZ004>008-012>016-024-026-027-054-030900-
NORTHEAST NORTH DAKOTA

CITY           SKY/WX    TMP DP  RH WIND       PRES   REMARKS
GRAND FORKS    FAIR      52  41  66 N13       29.65R
GRND FRKS AFB  PTCLDY    52  40  65 N9        29.67R
DEVILS LAKE    CLEAR     46  36  66 NW13      29.72S
$$

NDZ022-023-025-028>030-036>039-047>053-030900-
SOUTHEAST NORTH DAKOTA

CITY           SKY/WX    TMP DP  RH WIND       PRES   REMARKS
FARGO          CLEAR     54  47  77 S6        29.64R
JAMESTOWN      MOCLDY    53  38  56 N10       29.70R
$$




USA.gov is the U.S. government's official web portal to all federal, state and local government web resources and services.